Change the Weather History Date:

Friday, August 30, 2013

  Actual Average Record
Temperature  
Mean Temperature 83 °F 81 °F  
Max Temperature 90 °F 87 °F 97 °F (1948)
Min Temperature 76 °F 74 °F 69 °F (1958)
Degree Days  
Heating Degree Days 0 0  
Month to date heating degree days 0 0  
Since 1 June heating degree days 0 0  
Since 1 July heating degree days 0 0  
Cooling Degree Days 18 16  
Month to date cooling degree days 517 508  
Year to date cooling degree days 1928 1962  
Since 1 June cooling degree days 1527 1520  
Growing Degree Days 34 (Base 50)    
Moisture  
Dew Point 75 °F    
Average Humidity 74    
Maximum Humidity 85    
Minimum Humidity 62    
Precipitation  
Precipitation 0.00 in 0.23 in 2.96 in (1985)
Month to date precipitation 7.90 6.03  
Year to date precipitation 34.94 29.87  
Snow  
Snow 0.00 in - 0.00 in ()
Month to date snowfall 0.0  
Since 1 June snowfall 0.0  
Since 1 July snowfall 0.0  
Snow Depth 0.00 in    
Sea Level Pressure  
Sea Level Pressure 29.94 in    
Wind  
Wind Speed 7 mph (East)    
Max Wind Speed 16 mph    
Max Gust Speed 22 mph    
Visibility 8 miles    
Events Thunderstorm    
T = Trace of Precipitation, MM = Missing Value Source: NWS Daily Summary

Daily Weather History Graph

Daily Weather History Graph

Search for Another Location

Airport or City:

Trip Planner

Search our weather history database for the weather conditions in past years. The results will help you decide how hot, cold, wet, or windy it might be!

Date:

Astronomy

Aug. 30, 2013 Rise Set
Actual Time 7:00 AM EDT 7:51 PM EDT
Civil Twilight 6:35 AM EDT 8:15 PM EDT
Nautical Twilight 6:06 AM EDT 8:44 PM EDT
Astronomical Twilight 5:36 AM EDT 9:14 PM EDT
Moon 1:49 AM EDT (8/30) 3:54 PM EDT (8/30)
Length of Visible Light 13h 39m
Length of Day
12h 50m
Waning Crescent, 29% of the Moon is Illuminated
Aug 30
Waning Crescent
Sep 5
New
Sep 12
First Quarter
Sep 19
Full
Sep 26
Last Quarter

Hourly Weather History & Observations

Time (EDT) Temp. Heat Index Dew Point Humidity Pressure Visibility Wind Dir Wind Speed Gust Speed Precip Events Conditions
12:53 AM 81.0 °F 86.2 °F 73.9 °F 79% 29.94 in 8.0 mi WSW 5.8 mph - N/A   Clear
1:53 AM 81.0 °F 86.2 °F 73.9 °F 79% 29.93 in 8.0 mi WSW 5.8 mph - N/A   Scattered Clouds
2:53 AM 80.1 °F 84.5 °F 73.9 °F 81% 29.91 in 8.0 mi WSW 4.6 mph - N/A   Clear
3:53 AM 79.0 °F - 73.9 °F 84% 29.91 in 7.0 mi WSW 5.8 mph - N/A   Clear
4:53 AM 78.1 °F - 73.0 °F 84% 29.91 in 7.0 mi WSW 6.9 mph - N/A   Clear
5:53 AM 78.1 °F - 73.0 °F 84% 29.91 in 7.0 mi West 6.9 mph - N/A   Clear
6:53 AM 78.1 °F - 73.0 °F 84% 29.93 in 7.0 mi WNW 3.5 mph - N/A   Clear
7:53 AM 78.1 °F - 73.9 °F 87% 29.95 in 5.0 mi Calm Calm - N/A   Clear
8:53 AM 80.1 °F 84.5 °F 73.9 °F 81% 29.96 in 5.0 mi WSW 4.6 mph - N/A   Haze
9:53 AM 84.0 °F 91.2 °F 73.9 °F 72% 29.97 in 6.0 mi Calm Calm - N/A   Haze
10:53 AM 87.1 °F 97.3 °F 75.9 °F 69% 29.97 in 7.0 mi North 3.5 mph - N/A   Clear
11:53 AM 86.0 °F 98.3 °F 78.1 °F 77% 29.98 in 6.0 mi East 10.4 mph - N/A   Haze
12:53 PM 88.0 °F 101.3 °F 78.1 °F 72% 29.96 in 7.0 mi ENE 9.2 mph - N/A   Partly Cloudy
1:27 PM 87.8 °F 102.5 °F 78.8 °F 75% 29.95 in 7.0 mi East 8.1 mph - N/A Thunderstorm Thunderstorm
1:53 PM 87.1 °F 99.8 °F 78.1 °F 74% 29.94 in 7.0 mi ENE 6.9 mph - N/A Thunderstorm Thunderstorm
2:29 PM 84.2 °F 89.6 °F 71.6 °F 66% 29.94 in 10.0 mi NNE 3.5 mph - N/A   Mostly Cloudy
2:53 PM 89.1 °F 93.7 °F 69.1 °F 52% 29.93 in 10.0 mi NNW 5.8 mph - N/A   Partly Cloudy
3:53 PM 89.1 °F 99.1 °F 75.0 °F 63% 29.91 in 10.0 mi NE 8.1 mph - N/A   Clear
4:53 PM 87.1 °F 99.8 °F 78.1 °F 74% 29.91 in 9.0 mi ENE 12.7 mph - N/A   Partly Cloudy
5:10 PM 87.8 °F 102.5 °F 78.8 °F 75% 29.90 in 9.0 mi ENE 13.8 mph 19.6 mph N/A   Mostly Cloudy
5:53 PM 84.0 °F 92.6 °F 75.9 °F 76% 29.92 in 10.0 mi ENE 12.7 mph 17.3 mph N/A   Overcast
6:09 PM 84.2 °F 92.3 °F 75.2 °F 74% 29.93 in 10.0 mi ENE 11.5 mph - N/A Thunderstorm Mostly Cloudy
6:22 PM 84.2 °F 92.3 °F 75.2 °F 74% 29.93 in 10.0 mi ENE 11.5 mph 20.7 mph N/A   Scattered Clouds
6:34 PM 84.2 °F 92.3 °F 75.2 °F 74% 29.93 in 10.0 mi ENE 12.7 mph 20.7 mph N/A   Mostly Cloudy
6:53 PM 84.0 °F 92.6 °F 75.9 °F 76% 29.94 in 10.0 mi East 11.5 mph - N/A   Overcast
7:23 PM 82.4 °F 90.9 °F 77.0 °F 84% 29.93 in 10.0 mi East 9.2 mph - N/A   Mostly Cloudy
7:31 PM 82.4 °F 89.5 °F 75.2 °F 79% 29.93 in 10.0 mi East 11.5 mph - N/A Thunderstorm Scattered Clouds
7:53 PM 82.9 °F 90.8 °F 75.9 °F 79% 29.94 in 10.0 mi ESE 11.5 mph - N/A   Scattered Clouds
7:59 PM 80.6 °F 85.4 °F 73.4 °F 79% 29.95 in 10.0 mi SSE 13.8 mph 20.7 mph N/A Thunderstorm Mostly Cloudy
8:20 PM 78.8 °F - 71.6 °F 78% 29.95 in 10.0 mi SSE 6.9 mph - N/A   Overcast
8:39 PM 80.6 °F 82.7 °F 66.2 °F 61% 29.94 in 10.0 mi Calm Calm - N/A   Mostly Cloudy
8:53 PM 81.0 °F 83.3 °F 66.9 °F 62% 29.94 in 10.0 mi SE 6.9 mph - N/A   Partly Cloudy
9:53 PM 80.1 °F 83.8 °F 72.0 °F 76% 29.94 in 10.0 mi SE 3.5 mph - N/A   Clear
10:53 PM 82.0 °F 89.4 °F 75.9 °F 82% 29.95 in 10.0 mi ESE 6.9 mph - N/A   Scattered Clouds
11:07 PM 82.4 °F 90.9 °F 77.0 °F 84% 29.94 in 8.0 mi SE 6.9 mph - N/A   Mostly Cloudy
11:19 PM 82.4 °F 90.9 °F 77.0 °F 84% 29.94 in 7.0 mi SSE 5.8 mph - N/A   Mostly Cloudy
11:53 PM 82.0 °F 90.2 °F 77.0 °F 85% 29.94 in 8.0 mi South 4.6 mph - N/A   Mostly Cloudy